Flag for U.S.A. Weather past 2 weeks in Naples, Florida, U.S.A.

Now
65 °F

Sunny.


Feels Like: 65 °F
Forecast: 57 / 67 °F
Wind: 9 mph from Northwest

Location: Naples Municipal

Current Time: Jan 27, 2015 at 2:27:05 PM

Latest Report: Jan 27, 2015 at 1:53 PM


Visibility: 10 mi

Pressure: 30.03 "Hg

Humidity: 54%

Dew point: 48 °F

Location of NaplesLocation

Historic Weather in Naples — Graph

°F

Naples temperature yesterday

Maximum temperature yesterday: 71 °F (at 11:53 AM)
Minimum temperature yesterday: 63 °F (at 12:53 AM)
Average temperature yesterday: 67 °F

Past Weeks' High & Low Weather Summary

 TemperatureHumidityPressure
High82 °F (Jan 13, 1:53 PM)100% (Jan 12, 10:03 PM)30.20 "Hg (Jan 12, 10:03 PM)
Low48 °F (Jan 25, 6:53 AM)39% (Jan 19, 12:53 PM)29.86 "Hg (Jan 24, 5:53 AM)
Average67 °F78%30.05 "Hg
* Reported Jan 12 12:53 PM — Jan 27 12:53 PM, Naples, Weather by CustomWeather, © 2014

Note: Actual official high and low records may vary slightly from our data, if they occured in-between our weather recording intervals... More about our weather records

Advertising

Naples weather history for previous 24 hours

 ConditionsComfort  
Time TempWeatherWind HumidityBarometerVisibility
12:53 PM
Jan 27
65 °FSunny.15 mph51%30.05 "Hg10 mi
11:53 AM64 °FSunny.7 mph50%30.08 "Hg10 mi
10:53 AM64 °FSunny.12 mph49%30.09 "Hg10 mi
9:53 AM62 °FSunny.8 mph56%30.09 "Hg10 mi
8:53 AM58 °FSunny.7 mph65%30.07 "Hg10 mi
7:53 AM55 °FSunny.7 mph74%30.05 "Hg10 mi
6:53 AM56 °FPassing clouds.8 mph77%30.03 "Hg10 mi
5:53 AM56 °FPassing clouds.5 mph81%30.01 "Hg10 mi
4:53 AM58 °FClear.5 mph75%29.99 "Hg10 mi
3:53 AM61 °FClear.8 mph70%29.98 "Hg10 mi
2:53 AM62 °FPassing clouds.8 mph67%29.99 "Hg10 mi
1:53 AM63 °FOvercast.14 mph60%29.99 "Hg10 mi
12:53 AM63 °FClear.14 mph56%29.99 "Hg10 mi
11:53 PM
Jan 26
64 °FOvercast.15 mph61%29.99 "Hg10 mi
10:53 PM63 °FOvercast.14 mph65%29.99 "Hg10 mi
9:53 PM63 °FPassing clouds.13 mph60%29.97 "Hg10 mi
8:53 PM64 °FOvercast.17 mph63%29.98 "Hg10 mi
7:53 PM64 °FOvercast.16 mph65%29.95 "Hg10 mi
6:53 PM65 °FMostly cloudy.10 mph66%29.93 "Hg10 mi
5:53 PM66 °FPartly sunny.20 mph56%29.92 "Hg10 mi
4:53 PM68 °FPartly sunny.18 mph51%29.92 "Hg10 mi
3:53 PM71 °FPartly sunny.16 mph49%29.91 "Hg10 mi
2:53 PM71 °FPassing clouds.23 mph47%29.90 "Hg10 mi
Weather by CustomWeather, © 2014

See weather overviewHow to use our weather pages